Weather History for Fairhope, AL

Change the Weather History Date:

Saturday, October 6, 2012

  Actual Average (KBFM) Record (KBFM)
Temperature  
Mean Temperature 76 °F -  
Max Temperature 87 °F 79 °F 89 °F (1997)
Min Temperature 64 °F 62 °F 48 °F (2010)
Cooling Degree Days 10    
Growing Degree Days 26 (Base 50)    
Moisture  
Dew Point 66 °F    
Average Humidity 76    
Maximum Humidity 100    
Minimum Humidity 40    
Precipitation  
Precipitation 0.00 in - - ()
Sea Level Pressure  
Sea Level Pressure 29.99 in    
Wind  
Wind Speed 2 mph (NW)    
Max Wind Speed 7 mph    
Max Gust Speed -    
Visibility 7 miles    
Events Fog    
Averages and records for this station are not official NWS values.
T = Trace of Precipitation, MM = Missing Value Source: NWS Daily Summary

Daily Weather History Graph

Daily Weather History Graph

Search for Another Location

Airport:

Trip Planner

Search our weather history database for the weather conditions in past years. The results will help you decide how hot, cold, wet, or windy it might be!

Date:

Astronomy

Oct. 06, 2012 Rise Set
Actual Time 6:48 AM CDT 6:30 PM CDT
Civil Twilight 6:24 AM CDT 6:54 PM CDT
Nautical Twilight 5:56 AM CDT 7:21 PM CDT
Astronomical Twilight 5:28 AM CDT 7:49 PM CDT
Moon 11:03 PM CDT (10/6) 12:24 PM CDT (10/6)
Length of Visible Light 12h 29m
Length of Day
11h 41m
Waning Gibbous, 65% of the Moon is Illuminated
Oct 6
Waning Gibbous
Oct 8
Last Quarter
Oct 15
New
Oct 21
First Quarter
Oct 29
Full

Hourly Weather History & Observations

Time (CDT) Temp. Heat Index Dew Point Humidity Pressure Visibility Wind Dir Wind Speed Gust Speed Precip Events Conditions
12:15 AM 68.0 °F - 68.0 °F 100% 30.03 in 0.2 mi Calm Calm - N/A Fog Fog
12:35 AM 68.0 °F - 66.2 °F 94% 30.03 in 7.0 mi Calm Calm - N/A   Mostly Cloudy
12:55 AM 66.2 °F - 66.2 °F 100% 30.02 in 0.5 mi Calm Calm - N/A Fog Fog
1:15 AM 68.0 °F - 68.0 °F 100% 30.02 in 0.8 mi Calm Calm - N/A   Overcast
1:35 AM 68.0 °F - 66.2 °F 94% 30.02 in 1.0 mi Calm Calm - N/A   Mostly Cloudy
2:35 AM 66.2 °F - 66.2 °F 100% 30.00 in 0.2 mi Calm Calm - N/A Fog Fog
2:55 AM 68.0 °F - 66.2 °F 94% 30.00 in 2.5 mi Calm Calm - N/A   Mostly Cloudy
3:15 AM 66.2 °F - 66.2 °F 100% 30.00 in 0.2 mi Calm Calm - N/A Fog Fog
3:35 AM 64.4 °F - 64.4 °F 100% 30.00 in 0.2 mi Calm Calm - N/A Fog Fog
3:55 AM 66.2 °F - 64.4 °F 94% 30.00 in 0.5 mi Calm Calm - N/A Fog Fog
4:15 AM 66.2 °F - 64.4 °F 94% 30.00 in 0.2 mi Calm Calm - N/A Fog Fog
4:35 AM 66.2 °F - 66.2 °F 100% 30.00 in 0.2 mi Calm Calm - N/A Fog Fog
4:55 AM 64.4 °F - 64.4 °F 100% 30.00 in 0.2 mi Calm Calm - N/A Fog Fog
5:55 AM 64.4 °F - 64.4 °F 100% 30.01 in 0.5 mi Calm Calm - N/A Fog Fog
6:15 AM 64.4 °F - 64.4 °F 100% 30.00 in 5.0 mi Calm Calm - N/A   Clear
6:35 AM 64.4 °F - 64.4 °F 100% 30.00 in 0.2 mi Calm Calm - N/A Fog Fog
6:55 AM 64.4 °F - 64.4 °F 100% 30.01 in 0.8 mi Calm Calm - N/A   Overcast
7:15 AM 64.4 °F - 64.4 °F 100% 30.01 in 5.0 mi Calm Calm - N/A   Scattered Clouds
7:35 AM 66.2 °F - 66.2 °F 100% 30.01 in 1.0 mi Calm Calm - N/A   Mostly Cloudy
7:55 AM 69.8 °F - 69.8 °F 100% 30.01 in 5.0 mi Calm Calm - N/A   Scattered Clouds
8:15 AM 71.6 °F - 71.6 °F 100% 30.02 in 7.0 mi Calm Calm - N/A   Clear
8:35 AM 73.4 °F - 71.6 °F 94% 30.02 in 10.0 mi Calm Calm - N/A   Clear
8:55 AM 73.4 °F - 73.4 °F 100% 30.03 in 10.0 mi NNW 3.5 mph - N/A   Clear
9:15 AM 77.0 °F - 69.8 °F 78% 30.03 in 10.0 mi NW 4.6 mph - N/A   Clear
9:35 AM 78.8 °F - 69.8 °F 74% 30.03 in 10.0 mi NW 4.6 mph - N/A   Clear
9:55 AM 80.6 °F 83.2 °F 68.0 °F 65% 30.03 in 10.0 mi Calm Calm - N/A   Clear
10:15 AM 82.4 °F 84.6 °F 66.2 °F 58% 30.03 in 10.0 mi North 6.9 mph - N/A   Clear
10:35 AM 82.4 °F 83.9 °F 64.4 °F 54% 30.03 in 10.0 mi North 4.6 mph - N/A   Clear
10:55 AM 84.2 °F 85.0 °F 62.6 °F 48% 30.03 in 7.0 mi NNW 4.6 mph - N/A   Clear
11:15 AM 86.0 °F 86.6 °F 62.6 °F 45% 30.02 in 10.0 mi North 6.9 mph - N/A   Clear
11:35 AM 86.0 °F 86.6 °F 62.6 °F 45% 30.02 in 10.0 mi North 3.5 mph - N/A   Clear
11:55 AM 86.0 °F 86.6 °F 62.6 °F 45% 30.01 in 10.0 mi NNW 4.6 mph - N/A   Clear
12:15 PM 86.0 °F 86.6 °F 62.6 °F 45% 30.00 in 7.0 mi NW 5.8 mph - N/A   Clear
12:35 PM 86.0 °F 86.6 °F 62.6 °F 45% 30.00 in 10.0 mi NW 6.9 mph - N/A   Clear
12:55 PM 86.0 °F 86.6 °F 62.6 °F 45% 29.99 in 7.0 mi NW 5.8 mph - N/A   Clear
1:15 PM 86.0 °F 86.1 °F 60.8 °F 43% 29.98 in 7.0 mi West 3.5 mph - N/A   Clear
1:35 PM 87.8 °F 87.6 °F 60.8 °F 40% 29.97 in 7.0 mi WNW 5.8 mph - N/A   Clear
1:55 PM 87.8 °F 88.5 °F 62.6 °F 43% 29.96 in 10.0 mi WNW 5.8 mph - N/A   Clear
2:15 PM 87.8 °F 88.5 °F 62.6 °F 43% 29.95 in 7.0 mi West 3.5 mph - N/A   Clear
2:35 PM 87.8 °F 88.5 °F 62.6 °F 43% 29.94 in 7.0 mi WNW 6.9 mph - N/A   Clear
3:15 PM 87.8 °F 87.6 °F 60.8 °F 40% 29.94 in 7.0 mi NW 6.9 mph - N/A   Clear
3:35 PM 87.8 °F 88.5 °F 62.6 °F 43% 29.93 in 10.0 mi WNW 5.8 mph - N/A   Clear
3:55 PM 86.0 °F 86.1 °F 60.8 °F 43% 29.93 in 10.0 mi NW 6.9 mph - N/A   Clear
4:15 PM 86.0 °F 86.1 °F 60.8 °F 43% 29.93 in 10.0 mi NW 5.8 mph - N/A   Clear
4:35 PM 86.0 °F 86.1 °F 60.8 °F 43% 29.93 in 10.0 mi NW 5.8 mph - N/A   Clear
5:15 PM 84.2 °F 85.0 °F 62.6 °F 48% 29.93 in 7.0 mi NW 3.5 mph - N/A   Clear
5:35 PM 82.4 °F 83.4 °F 62.6 °F 51% 29.93 in 10.0 mi NW 3.5 mph - N/A   Clear
6:15 PM 78.8 °F - 66.2 °F 65% 29.94 in 10.0 mi NNW 3.5 mph - N/A   Clear
6:35 PM 75.2 °F - 66.2 °F 73% 29.94 in 10.0 mi Calm Calm - N/A   Clear
6:55 PM 71.6 °F - 68.0 °F 88% 29.95 in 10.0 mi Calm Calm - N/A   Clear
7:15 PM 71.6 °F - 68.0 °F 88% 29.95 in 10.0 mi Calm Calm - N/A   Clear
7:35 PM 69.8 °F - 68.0 °F 94% 29.96 in 10.0 mi Calm Calm - N/A   Clear
7:55 PM 69.8 °F - 68.0 °F 94% 29.97 in 10.0 mi Calm Calm - N/A   Clear
8:15 PM 71.6 °F - 66.2 °F 83% 29.97 in 10.0 mi Calm Calm - N/A   Scattered Clouds
8:35 PM 71.6 °F - 68.0 °F 88% 29.98 in 10.0 mi Calm Calm - N/A   Mostly Cloudy
8:55 PM 73.4 °F - 66.2 °F 78% 29.99 in 10.0 mi WNW 5.8 mph - N/A   Overcast
9:15 PM 73.4 °F - 66.2 °F 78% 29.99 in 10.0 mi NNW 5.8 mph - N/A   Scattered Clouds
9:35 PM 75.2 °F - 68.0 °F 78% 30.00 in 10.0 mi North 3.5 mph - N/A   Clear
9:55 PM 73.4 °F - 68.0 °F 83% 30.00 in 10.0 mi NNW 3.5 mph - N/A   Clear
10:15 PM 73.4 °F - 68.0 °F 83% 30.00 in 10.0 mi Calm Calm - N/A   Clear
10:35 PM 73.4 °F - 68.0 °F 83% 30.00 in 10.0 mi NNW 4.6 mph - N/A   Clear
10:55 PM 71.6 °F - 68.0 °F 88% 30.00 in 10.0 mi NNW 3.5 mph - N/A   Clear
11:15 PM 71.6 °F - 68.0 °F 88% 30.00 in 10.0 mi Calm Calm - N/A   Clear
11:35 PM 71.6 °F - 68.0 °F 88% 30.00 in 10.0 mi North 3.5 mph - N/A   Clear